Regional Weather Roundup
Issued by NWS Cleveland, OH

Home | Current Version | Previous Version | Text Only | Print | Product List | Glossary Off
Versions: 1 2 3 4 5 6 7 8 9 10 11 12 13 14 15 16 17 18 19 20 21 22 23 24 25 26 27 28 29 30 31 32 33 34 35 36 37 38 39 40 41 42 43 44 45 46 47 48 49 50

000
ASUS41 KCLE 180010
RWRCLE
OHIO REGIONAL WEATHER ROUNDUP
NATIONAL WEATHER SERVICE WILMINGTON, OH
800 PM EDT TUE OCT 17 2017

NOTE: "FAIR" INDICATES FEW OR NO CLOUDS BELOW 12,000 FEET WITH NO
SIGNIFICANT WEATHER AND/OR OBSTRUCTIONS TO VISIBILITY.

OHZ001>008-015>018-024>027-034-035-043-044-180100-
   NORTHWEST OHIO

CITY           SKY/WX    TMP DP  RH WIND       PRES   REMARKS
DEFIANCE       FAIR      57  39  51 S6        30.19R
FINDLAY        FAIR      55  39  54 S7        30.21R
TOLEDO EXPRESS FAIR      58  43  57 S6        30.18R
TOLEDO EXEC    FAIR      59  41  51 SW8       30.19R
LIMA           FAIR      57  39  51 S7        30.22S
$$

OHZ009>014-019>023-028>033-038-089-180100-
   NORTHEAST OHIO

CITY           SKY/WX    TMP DP  RH WIND       PRES   REMARKS
CLE-HOPKINS    FAIR      59  39  47 S8        30.22R
CLE-LAKEFRONT  FAIR      62  37  39 S12       30.19R
CUY CO. ARPT   CLEAR     61  39  44 SW9       30.21R
LORAIN-ELYRIA  FAIR      55  36  48 SW6       30.21R
ASHTABULA      FAIR      56  39  53 S6        30.21R
AKRON-CANTON   FAIR      54  39  57 SW8       30.24R
WOOSTER        FAIR      46  41  82 S3        30.24R
MANSFIELD      FAIR      52  38  58 S8        30.23S
YOUNGSTOWN     FAIR      55  39  54 S7        30.23R
$$

OHZ042-051>053-060>062-070>072-077>081-180100-
  SOUTHWEST OHIO

CITY           SKY/WX    TMP DP  RH WIND       PRES   REMARKS
CINC-COVINGTON FAIR      56  42  59 S3        30.27R
CINC-LUNKEN    FAIR      52  47  83 CALM      30.28R
HAMILTON       FAIR      48  44  86 CALM      30.27S
DAYTON         FAIR      58  41  53 S7        30.26S
WRIGHT-PAT AFB FAIR      53  39  59 CALM      30.25S
DAYTON GENERAL FAIR      56  40  55 S5        30.25S
WILMINGTON     FAIR      51  42  71 SE3       30.27R
$$

OHZ036-037-039>041-045>050-054>059-063>069-073>076-082>088-180100-
  CENTRAL AND SOUTHEAST OHIO

CITY           SKY/WX    TMP DP  RH WIND       PRES   REMARKS
COLUMBUS       FAIR      58  40  51 S5        30.25S
OSU AIRPORT    FAIR      57  39  51 SW5       30.25S
BOLTON FIELD   FAIR      54  40  58 S6        30.26S
RICKENBACK AFB FAIR      56  40  54 S7        30.26R
NEWARK         FAIR      54  39  57 S3        30.26R
MARION         FAIR      56  38  50 SW8       30.24R
LANCASTER      FAIR      54  41  61 S3        30.27R
ZANESVILLE     FAIR      55  39  54 S5        30.27R
NEW PHILLY     FAIR      52  41  66 CALM      30.26R
$$




USA.gov is the U.S. government's official web portal to all federal, state and local government web resources and services.